Meridian NAS, MS

4:00 PM CST on February 21, 2018 (GMT -0600)
Meridian Naval Air Station

Weather History for KNMM - October, 2011

Change the Weather History Date:

Saturday, October 8, 2011

  Actual Average Record
Temperature  
Mean Temperature 70 °F -  
Max Temperature 82 °F 76 °F 91 °F (2007)
Min Temperature 57 °F 55 °F 46 °F (2012)
Cooling Degree Days 4    
Growing Degree Days 20 (Base 50)    
Moisture  
Dew Point 56 °F    
Average Humidity 64    
Maximum Humidity 87    
Minimum Humidity 41    
Precipitation  
Precipitation 0.00 in - - ()
Sea Level Pressure  
Sea Level Pressure 30.25 in    
Wind  
Wind Speed 5 mph (East)    
Max Wind Speed 18 mph    
Max Gust Speed 24 mph    
Visibility 10 miles    
Events      
Averages and records for this station are not official NWS values.
T = Trace of Precipitation, MM = Missing Value Source: NWS Daily Summary

Daily Weather History Graph

Daily Weather History Graph

Search for Another Location

Airport or City:

Trip Planner

Search our weather history database for the weather conditions in past years. The results will help you decide how hot, cold, wet, or windy it might be!

Date:

Astronomy

Oct. 08, 2011 Rise Set
Actual Time 6:52 AM CDT 6:30 PM CDT
Civil Twilight 6:28 AM CDT 6:54 PM CDT
Nautical Twilight 5:59 AM CDT 7:23 PM CDT
Astronomical Twilight 5:31 AM CDT 7:51 PM CDT
Moon 4:33 PM CDT (10/8) 3:49 AM CDT (10/8)
Length of Visible Light 12h 26m
Length of Day
11h 37m
Waxing Gibbous, 90% of the Moon is Illuminated
Oct 8
Waxing Gibbous
Oct 11
Full
Oct 19
Last Quarter
Oct 26
New
Nov 2
First Quarter

Hourly Weather History & Observations

Time (CDT) Temp. Heat Index Dew Point Humidity Pressure Visibility Wind Dir Wind Speed Gust Speed Precip Events Conditions
12:56 AM 57.9 °F - 53.1 °F 84% 30.26 in 10.0 mi Calm Calm - N/A   Clear
1:56 AM 57.0 °F - 53.1 °F 87% 30.26 in 10.0 mi Calm Calm - N/A   Clear
2:56 AM 57.9 °F - 53.1 °F 84% 30.25 in 10.0 mi Calm Calm - N/A   Clear
3:56 AM 59.0 °F - 53.1 °F 81% 30.26 in 10.0 mi Calm Calm - N/A   Clear
4:56 AM 59.0 °F - 52.0 °F 78% 30.27 in 10.0 mi Calm Calm - N/A   Clear
5:56 AM 57.9 °F - 52.0 °F 81% 30.28 in 10.0 mi Calm Calm - N/A   Clear
6:56 AM 57.0 °F - 53.1 °F 87% 30.30 in 10.0 mi Calm Calm - N/A   Clear
7:56 AM 60.1 °F - 55.0 °F 83% 30.31 in 10.0 mi Calm Calm - N/A   Clear
8:56 AM 66.0 °F - 57.0 °F 73% 30.32 in 10.0 mi ESE 6.9 mph - N/A   Clear
9:56 AM 71.1 °F - 57.0 °F 61% 30.32 in 10.0 mi ESE 11.5 mph - N/A   Clear
10:56 AM 75.0 °F - 59.0 °F 57% 30.31 in 10.0 mi ESE 12.7 mph - N/A   Mostly Cloudy
11:26 AM 77.0 °F - 60.8 °F 57% 30.27 in 10.0 mi ESE 13.8 mph 21.9 mph N/A   Scattered Clouds
11:54 AM 78.8 °F - 60.8 °F 54% 30.27 in 10.0 mi East 13.8 mph 23.0 mph N/A   Mostly Cloudy
11:56 AM 78.1 °F - 60.1 °F 54% 30.29 in 10.0 mi East 15.0 mph 21.9 mph N/A   Mostly Cloudy
12:13 PM 78.8 °F - 60.8 °F 54% 30.26 in 10.0 mi ESE 18.4 mph 24.2 mph N/A   Mostly Cloudy
12:56 PM 80.1 °F 80.7 °F 59.0 °F 48% 30.27 in 10.0 mi East 13.8 mph - N/A   Scattered Clouds
1:56 PM 81.0 °F 81.0 °F 57.0 °F 44% 30.24 in 10.0 mi East 13.8 mph 19.6 mph N/A   Clear
2:56 PM 80.1 °F 80.2 °F 55.9 °F 43% 30.22 in 10.0 mi East 10.4 mph - N/A   Partly Cloudy
3:56 PM 82.0 °F 81.6 °F 55.9 °F 41% 30.22 in 10.0 mi East 10.4 mph - N/A   Partly Cloudy
4:56 PM 81.0 °F 80.7 °F 55.0 °F 41% 30.20 in 10.0 mi East 11.5 mph - N/A   Clear
5:56 PM 78.1 °F - 55.0 °F 45% 30.19 in 10.0 mi ENE 3.5 mph - N/A   Clear
6:56 PM 71.1 °F - 57.0 °F 61% 30.19 in 10.0 mi NE 4.6 mph - N/A   Clear
7:56 PM 71.1 °F - 55.9 °F 59% 30.20 in 10.0 mi ENE 5.8 mph - N/A   Clear
8:56 PM 66.9 °F - 57.0 °F 70% 30.22 in 10.0 mi East 6.9 mph - N/A   Clear
9:56 PM 69.1 °F - 57.0 °F 65% 30.22 in 10.0 mi East 8.1 mph - N/A   Clear
10:56 PM 66.9 °F - 55.9 °F 68% 30.22 in 10.0 mi East 4.6 mph - N/A   Clear
11:56 PM 64.0 °F - 55.0 °F 73% 30.22 in 10.0 mi East 4.6 mph - N/A   Clear